| time (UTC) | temp C | wind direction | speed KPH | gust KPH | rain 1hr cm | rain 24hr cm | rain mn cm | humidity % | barometer mb |
| 20260504044543 | 29 | 153 | 16.1 | 38.6 | 0.00 | 0.00 | 0.00 | 19 | 944.6 |
| 20260504043048 | 30 | 209 | 16.1 | 32.2 | 0.00 | 0.00 | 0.00 | 19 | 944.5 |
| 20260504041545 | 30 | 195 | 22.5 | 37.0 | 0.00 | 0.00 | 0.00 | 19 | 944.4 |
| 20260504040045 | 30 | 164 | 17.7 | 33.8 | 0.00 | 0.00 | 0.00 | 19 | 944.3 |
| 20260504034550 | 30 | 181 | 14.5 | 30.6 | 0.00 | 0.00 | 0.00 | 19 | 944.1 |
| 20260504033040 | 30 | 171 | 19.3 | 41.8 | 0.00 | 0.00 | 0.00 | 19 | 943.9 |
| 20260504031543 | 30 | 146 | 20.9 | 35.4 | 0.00 | 0.00 | 0.00 | 20 | 943.5 |
| 20260504030039 | 31 | 174 | 16.1 | 30.6 | 0.00 | 0.00 | 0.00 | 20 | 943.3 |
| 20260504024546 | 31 | 198 | 12.9 | 30.6 | 0.00 | 0.00 | 0.00 | 19 | 943.3 |
| 20260504023038 | 31 | 188 | 14.5 | 33.8 | 0.00 | 0.00 | 0.00 | 18 | 943.2 |
| 20260504021540 | 31 | 179 | 17.7 | 35.4 | 0.00 | 0.00 | 0.00 | 17 | 943.1 |
| 20260504020041 | 32 | 153 | 20.9 | 40.2 | 0.00 | 0.00 | 0.00 | 16 | 943.1 |
| 20260504014538 | 32 | 155 | 20.9 | 37.0 | 0.00 | 0.00 | 0.00 | 16 | 943.1 |
| 20260504013046 | 32 | 163 | 20.9 | 35.4 | 0.00 | 0.00 | 0.00 | 15 | 943.3 |
| 20260504011534 | 32 | 162 | 22.5 | 35.4 | 0.00 | 0.00 | 0.00 | 14 | 943.2 |
| 20260504010037 | 32 | 180 | 17.7 | 35.4 | 0.00 | 0.00 | 0.00 | 14 | 943.3 |
| 20260504004532 | 33 | 16.1 | 43.5 | 0.00 | 0.00 | 0.00 | 14 | 943.5 | |
| 20260504003032 | 33 | 221 | 22.5 | 45.1 | 0.00 | 0.00 | 0.00 | 13 | 943.4 |
| 20260504001536 | 33 | 172 | 25.7 | 41.8 | 0.00 | 0.00 | 0.00 | 13 | 943.6 |
| 20260504000030 | 33 | 229 | 24.1 | 40.2 | 0.00 | 0.00 | 0.00 | 12 | 943.6 |
| 20260503234529 | 33 | 169 | 24.1 | 38.6 | 0.00 | 0.00 | 0.00 | 12 | 943.3 |
| 20260503233028 | 33 | 214 | 17.7 | 32.2 | 0.00 | 0.00 | 0.00 | 12 | 943.7 |
| 20260503231528 | 33 | 207 | 24.1 | 41.8 | 0.00 | 0.00 | 0.00 | 12 | 943.7 |
| 20260503230037 | 33 | 144 | 29.0 | 40.2 | 0.00 | 0.00 | 0.00 | 12 | 943.7 |
| 20260503224524 | 33 | 173 | 24.1 | 38.6 | 0.00 | 0.00 | 0.00 | 11 | 943.9 |
| 20260503223021 | 33 | 22.5 | 48.3 | 0.00 | 0.00 | 0.00 | 11 | 944.0 | |
| 20260503221523 | 33 | 205 | 17.7 | 33.8 | 0.00 | 0.00 | 0.00 | 12 | 944.2 |
| 20260503220018 | 33 | 202 | 17.7 | 43.5 | 0.00 | 0.00 | 0.00 | 12 | 944.4 |
| 20260503214534 | 33 | 184 | 25.7 | 53.1 | 0.00 | 0.00 | 0.00 | 12 | 944.7 |
| 20260503213016 | 34 | 167 | 22.5 | 40.2 | 0.00 | 0.00 | 0.00 | 12 | 944.8 |
| 20260503211514 | 33 | 195 | 24.1 | 41.8 | 0.00 | 0.00 | 0.00 | 13 | 945.0 |
| 20260503210013 | 34 | 238 | 24.1 | 48.3 | 0.00 | 0.00 | 0.00 | 14 | 945.1 |
| 20260503204512 | 33 | 191 | 29.0 | 49.9 | 0.00 | 0.00 | 0.00 | 15 | 945.2 |
| 20260503203014 | 33 | 191 | 27.4 | 45.1 | 0.00 | 0.00 | 0.00 | 16 | 945.3 |
| 20260503201510 | 33 | 203 | 24.1 | 49.9 | 0.00 | 0.00 | 0.00 | 16 | 945.5 |
| 20260503200008 | 33 | 22.5 | 32.2 | 0.00 | 0.00 | 0.00 | 17 | 945.9 | |
| 20260503194508 | 32 | 20.9 | 35.4 | 0.00 | 0.00 | 0.00 | 17 | 946.3 | |
| 20260503193002 | 33 | 24.1 | 37.0 | 0.00 | 0.00 | 0.00 | 17 | 946.5 | |
| 20260503191618 | 32 | 216 | 16.1 | 38.6 | 0.00 | 0.00 | 0.00 | 16 | 946.9 |
| 20260503190055 | 32 | 209 | 12.9 | 38.6 | 0.00 | 0.00 | 0.00 | 16 | 947.2 |
| 20260503184553 | 31 | 218 | 16.1 | 29.0 | 0.00 | 0.00 | 0.00 | 15 | 947.4 |
| 20260503183050 | 31 | 251 | 20.9 | 27.4 | 0.00 | 0.00 | 0.00 | 15 | 947.7 |
| 20260503181551 | 30 | 231 | 11.3 | 22.5 | 0.00 | 0.00 | 0.00 | 15 | 948.0 |
| 20260503180055 | 30 | 153 | 3.2 | 16.1 | 0.00 | 0.00 | 0.00 | 14 | 948.3 |
| 20260503174551 | 29 | 246 | 6.4 | 14.5 | 0.00 | 0.00 | 0.00 | 13 | 948.4 |
| 20260503173043 | 29 | 272 | 4.8 | 12.9 | 0.00 | 0.00 | 0.00 | 12 | 948.4 |
| 20260503171542 | 30 | 212 | 1.6 | 9.7 | 0.00 | 0.00 | 0.00 | 12 | 948.5 |
| 20260503081551 | 25 | 340 | 0.0 | 3.2 | 0.00 | 0.00 | 0.00 | 13 | 948.5 |